Flag for Austria Weather past 2 weeks in Amstetten, Lower Austria, Austria

Now
30 °F

Overcast.


Feels Like: N/A
Forecast: 22 / 37 °F
Wind: N/A

Location: Linz / Hoersching-Flughafen

Current Time: Jan 28, 2015 at 11:28:44 PM

Latest Report: Jan 28, 2015 at 10:00 PM


Visibility: 8 mi

Pressure: 29.75 "Hg

Humidity: 90%

Dew point: 27 °F

Location of AmstettenLocation

Historic Weather in Amstetten — Graph

°F

Amstetten temperature yesterday

Maximum temperature yesterday: 36 °F (at 1:00 PM)
Minimum temperature yesterday: 28 °F (at 12:00 AM)
Average temperature yesterday: 33 °F

Past Weeks' High & Low Weather Summary

 TemperatureHumidityPressure
High43 °F (Jan 22, 3:00 PM)100% (Jan 26, 10:00 PM)30.38 "Hg (Jan 26, 10:00 PM)
Low26 °F (Jan 14, 3:00 AM)66% (Jan 28, 3:00 PM)29.75 "Hg (Jan 28, 10:00 PM)
Average34 °F87%30.05 "Hg
* Reported Jan 13 10:00 PM — Jan 28 10:00 PM, Amstetten, Weather by CustomWeather, © 2014

Note: Actual official high and low records may vary slightly from our data, if they occured in-between our weather recording intervals... More about our weather records

Advertising

Amstetten weather history for previous 24 hours

 ConditionsComfort  
Time TempWeatherWind HumidityBarometerVisibility
10:00 PM
Jan 28
30 °FOvercast.N/A90%29.75 "Hg7 mi
9:00 PM30 °FOvercast.N/A88%29.79 "Hg9 mi
8:00 PMN/APassing clouds.6 mphN/AN/A3 mi
7:00 PM31 °FOvercast.N/A80%29.89 "Hg14 mi
6:00 PM33 °FPassing clouds.N/A74%29.94 "Hg28 mi
5:00 PM35 °FPassing clouds.N/A74%29.96 "Hg28 mi
4:00 PM37 °FScattered clouds.6 mph69%29.98 "Hg28 mi
3:00 PM39 °FPartly sunny.7 mph66%30.00 "Hg19 mi
2:00 PM39 °FOvercast.8 mph67%30.02 "Hg22 mi
1:00 PM38 °FOvercast.8 mph74%30.06 "Hg15 mi
12:00 PM38 °FOvercast.8 mph79%30.10 "Hg11 mi
11:00 AM37 °FOvercast.8 mph82%30.12 "Hg10 mi
10:00 AM36 °FOvercast.5 mph84%30.14 "Hg7 mi
9:00 AM34 °FSnow flurries. Overcast.5 mph88%30.15 "Hg6 mi
8:00 AM34 °FOvercast.3 mph88%30.16 "Hg6 mi
7:00 AM34 °FOvercast.5 mph88%30.16 "Hg6 mi
6:00 AM34 °FOvercast.5 mph90%30.16 "Hg6 mi
5:00 AM33 °FLight snow. Overcast.5 mph92%30.16 "Hg6 mi
4:00 AM33 °FOvercast.3 mph90%30.17 "Hg6 mi
3:00 AM33 °FOvercast.3 mph91%30.17 "Hg6 mi
2:00 AM33 °FRain showers. Overcast.5 mph88%30.17 "Hg6 mi
1:00 AM33 °FPassing clouds.7 mph87%30.16 "Hg9 mi
12:00 AM34 °FOvercast.6 mph87%30.17 "Hg9 mi
11:00 PM
Jan 27
34 °FOvercast.7 mph87%30.17 "Hg9 mi
Weather by CustomWeather, © 2014

See weather overviewHow to use our weather pages